Showing default

MIDAS 7/ERS 10, 622

Orbit data source: Space-Track

MIDAS 7/ERS 10, 622 is a payload satellite owned by USAF SSD (US) in LEO that was launched on Fri, 19 Jul 1963 UTC via an ATLAS AGENA B launch vehicle from the Air Force Western Test Range (AFWTR). Payload-class satellites include a variety of spacecraft equipped with specific instruments for various scientific and technological missions. These include communications satellites like Starlink; space stations such as the ISS; scientific satellites like the Hubble; Earth observation satellites from companies like Planet Labs, Umbra, and HawkEye 360; GPS; miniature CubeSats for education and research; and military/defense satellites.

Loading next visibility...
Identifier
622, 1963-030A
Orbit
LEO
Country
Flag of USUS
Related business
Manufacturer
LMSC
Mission
Defense Early Warn
Bus & Motor
MIDAS, Unknown motor
Mass
~1,540 kg wet, ~840 kg dry
Launch date (UTC)
1963-07-19 (62 years ago)
Launch vehicle
ATLAS AGENA B
Launch site
Air Force Western Test Range (AFWTR)
Object type
Payload
Rocket body
Debris
Shape & HBR
Cyl + Cone, 4.5 m
Radar Cross Section
11.475 m², Large (>1 m²)

Expand to show TLE details & history
Last TLE update: 2 days ago

TLE from 2 days ago
0 MIDAS 7/ERS 10
1 00622U 63030A   25259.35451485  .00000000  00000-0 -10687-2 0  9995
2 00622  88.4216 226.3138 0031354 334.5969  25.3339  8.57932472436297
Epoch: 2025-09-16T08:30Z
TLE epoch observation values (Epoch: 2025-09-16T08:30:30.083Z)
Latitude
-0.00005°
Longitude
103.14244°
Altitude
3,674.858 km
Speed
6.306 km/s
True Right ascension
15h 05m 15s
True Declination
0° 00' 00"
Sunlit
Object was in daylight at epoch
Visualization orbit readout
Latitude
Unknown
Longitude
Unknown
Altitude
Unknown
Speed
Unknown
Apparent Right ascension
Unknown
Apparent Declination
Unknown
Sunlit
N/A
Visualization observer readout
Local Sidereal Time
14:45:55
Azimuth
Unknown
Elevation
Unknown
Doppler factor
Unknown
Orbital elements
Apogee altitude
3,730.649 km
Perigee altitude
3,667.457 km
Semi-major axis
10,077.19 km
Eccentricity
0.00314
Inclination
88.4216°
RAAN
226.3138°
Arg. of periapsis
334.5969°
True anomaly
25.48818°
Mean anomaly
25.3339°
Eccentric anomaly
25.41099°
Mean motion
2.14553 °/min
Orbital period
167.79 mins
BSTAR
-0.0010687
Loading maneuver chart data...
Computing Atmospheric mass density...
Loading historical data...
Loading historical data...
Loading historical data...
Loading historical data...
Loading historical data...
Loading historical data...
Loading historical data...

Documentation

Showing up to 5 results
|